Overview Statistics Trail Chart Weather Telemetry Raw packets
 

This is the latest recevied weather packets stored in our database for station/object DL5DI-H. If no packets are shown the sender has not sent any weather packets the latest 10 day(s).

<< 43 44 45 46 47 48 49 >>
Time Temp. Humidity Pressure Rain* Wind** Luminosity Snow
1788029402 21.67° C 69% 1012.3 hPa 0 mm - - -
1788028802 21.67° C 69% 1012.2 hPa 0 mm - - -
1788028200 22.22° C 68% 1012.2 hPa 0 mm - - -
1788027002 22.22° C 66% 1012.1 hPa 0 mm - - -
1788026402 22.22° C 66% 1012.1 hPa 0 mm - - -
1788025801 22.22° C 66% 1012.1 hPa 0 mm - - -
1788025200 22.22° C 66% 1012.2 hPa 0 mm - - -
1788024601 22.22° C 66% 1012.3 hPa 0 mm - - -
1788024001 22.22° C 66% 1012.3 hPa 0 mm - - -
1788023402 22.22° C 66% 1012.5 hPa 0 mm - - -
1788022802 22.22° C 66% 1012.5 hPa 0 mm - - -
1788022202 22.22° C 66% 1012.7 hPa 0 mm - - -
1788021602 22.22° C 66% 1012.7 hPa 0 mm - - -
1788021000 21.67° C 68% 1012.8 hPa 0 mm - - -
1788020402 21.67° C 68% 1012.9 hPa 0 mm - - -
1788019801 21.67° C 68% 1012.9 hPa 0 mm - - -
1788019201 21.67° C 68% 1013 hPa 0 mm - - -
1788018601 21.67° C 68% 1013.1 hPa 0 mm - - -
1788018001 21.67° C 68% 1013.1 hPa 0 mm - - -
1788017401 21.67° C 69% 1013.4 hPa 0 mm - - -
1788016800 22.22° C 68% 1013.6 hPa 0 mm - - -
1788016203 22.22° C 68% 1013.6 hPa 0 mm - - -
1788015600 22.22° C 67% 1013.6 hPa 0 mm - - -
1788015002 22.78° C 63% 1013.5 hPa 0 mm - - -
1788014402 22.78° C 63% 1013.5 hPa 0 mm - - -

* Rain latest hour (hover to see other rain measurements)
** Current wind speed in m/s (hover to see current wind gust speed)